Location: Holyhead Bay
(53.3667°N, 4.6667°W)
Time: 12:09:10
(UTC+00:00)

IRIDIUM 33 DEB - Pass Details

Date: 30 September 2021
Orbit: 581 x 600 km, 86.4° (Epoch: 26 October)

Event Time Altitude Azimuth Distance (km) Brightness Sun altitude
Rises 18:35:48 0° 237° (WSW) 2,858 ? -6.6°
Reaches altitude 10° 18:39:04 10° 263° (W) 1,958 ? -7.0°
Maximum altitude 18:41:15 14° 294° (WNW) 1,731 ? -7.4°
Drops below altitude 10° 18:43:23 10° 324° (NW) 1,947 ? -7.7°
Sets 18:46:44 0° 352° (N) 2,865 ? -8.2°
